This is the latest recevied weather packets stored in our database for station/object HB9KBJ-8. If no packets are shown the sender has not sent any weather packets the latest 10 day(s).
| Time | Temp. | Humidity | Pressure | Rain* | Wind** | Luminosity | Snow |
|---|---|---|---|---|---|---|---|
| 1777619545 | 12.22° C | 40% | 1025.3 hPa | 0 mm | - | 413 W/m² | - |
| 1777619237 | 12.78° C | 40% | 1025.3 hPa | 0 mm | - | 399 W/m² | - |
| 1777618936 | 12.78° C | 45% | 1025.3 hPa | 0 mm | - | 387 W/m² | - |
| 1777618351 | 12.22° C | 47% | 1025.4 hPa | 0 mm | - | 360 W/m² | - |
| 1777618047 | 11.67° C | 49% | 1025.3 hPa | 0 mm | - | 346 W/m² | - |
| 1777617739 | 11.11° C | 51% | 1025.3 hPa | 0 mm | - | 332 W/m² | - |
| 1777617439 | 10.56° C | 52% | 1025.4 hPa | 0 mm | - | 318 W/m² | - |
| 1777617153 | 10° C | 52% | 1025.3 hPa | 0 mm | - | 306 W/m² | - |
| 1777616848 | 10° C | 55% | 1025.4 hPa | 0 mm | - | 292 W/m² | - |
| 1777616545 | 9.44° C | 55% | 1025.4 hPa | 0 mm | - | 278 W/m² | - |
| 1777616244 | 9.44° C | 55% | 1025.4 hPa | 0 mm | - | 265 W/m² | - |
| 1777615940 | 9.44° C | 56% | 1025.4 hPa | 0 mm | - | 251 W/m² | - |
| 1777615634 | 8.89° C | 57% | 1025.4 hPa | 0 mm | - | 237 W/m² | - |
| 1777615346 | 8.33° C | 58% | 1025.3 hPa | 0 mm | - | 223 W/m² | - |
| 1777615039 | 7.78° C | 59% | 1025.4 hPa | 0 mm | - | 209 W/m² | - |
| 1777614737 | 7.78° C | 60% | 1025.3 hPa | 0 mm | - | 197 W/m² | - |
| 1777614449 | 7.22° C | 62% | 1025.3 hPa | 0 mm | - | 185 W/m² | - |
| 1777614140 | 6.67° C | 64% | 1025.3 hPa | 0 mm | - | 171 W/m² | - |
| 1777613848 | 6.11° C | 66% | 1025.2 hPa | 0 mm | - | 156 W/m² | - |
| 1777613546 | 5.56° C | 68% | 1025.2 hPa | 0 mm | - | 141 W/m² | - |
| 1777613246 | 5° C | 69% | 1025.2 hPa | 0 mm | - | 125 W/m² | - |
| 1777612937 | 5° C | 70% | 1025.1 hPa | 0 mm | - | 109 W/m² | - |
| 1777612635 | 4.44° C | 71% | 1025.1 hPa | 0 mm | - | 95 W/m² | - |
| 1777612337 | 3.89° C | 72% | 1025.1 hPa | 0 mm | - | 83 W/m² | - |
| 1777612035 | 3.89° C | 72% | 1025 hPa | 0 mm | - | 69 W/m² | - |
* Rain latest hour (hover to see other rain measurements)
** Current wind speed in m/s (hover to see current wind gust speed)